Main page
METAR-TAF:

METAR-TAF

Airports :

Paros, Greece

Paros National Airport

latitude: 37-01-15N, longitude: 025-06-46E, elevation: 38 m

Current weather observation

The report was made 1 hour and 9 minutes ago, at 08:50 UTC
Wind 22 kt from the North
Temperature 18°C
Humidity 64%
Pressure 1019 hPa
Visibility 10 km or more
no clouds below 1500 m and no cumulonimbus

METAR: LGPA 190850Z 35022KT CAVOK 18/11 Q1019 NOSIG

Time: 12:59 (09:59 UTC)


TAF: missing

Weather observations and forecasts of more than 4000 airports (METAR and TAF reports).

The available stations are represented by yellow and red dots on the map.

Hover mouse over dot to see the name of the station.

Then click to see weather observations and forecasts.

To change the map : click on the green buttons with a black cross to zoom in, on the green button with a dash to zoom out, or on the green arrows for adjacent maps.


METAR-TAF: